RYR9DT EGSS-LICA

Flight info

Callsign RYR9DT
Flight time N/A
Altitude 37000
Route CLN M84 KONAN UL607 KOK DCT DENOX DCT REMBA M624 RITAX DCT KRH DCT BATUB DCT TIRUL M738 NATAG DCT LORLO DCT BORMI DCT ERDON DCT EVINO/N0392F190 M620 ARBUM
Aircraft B738/M-SDE2E3FGHIRWXY/LB1

Departure

Time N/A
Airport London Stansted Airport (EGSS)

Arrival

Time 2026-04-23 14:58
Airport Lamezia Terme Sant'Eufemia International Airport (LICA)
Time Latitude Longitude Altitude Speed Heading
2026-04-23 13:20 48.51420 9.07134 37326 ft 435 kts 143°
2026-04-23 13:20 48.48894 9.09675 37326 ft 435 kts 143°
2026-04-23 13:21 48.43851 9.14739 37318 ft 436 kts 143°
2026-04-23 13:21 48.38799 9.19800 37330 ft 436 kts 143°
2026-04-23 13:22 48.33758 9.24838 37324 ft 437 kts 143°
2026-04-23 13:22 48.28684 9.29895 37319 ft 438 kts 143°
2026-04-23 13:23 48.23597 9.34954 37322 ft 439 kts 143°
2026-04-23 13:23 48.18492 9.40019 37314 ft 439 kts 143°
2026-04-23 13:24 48.13385 9.45073 37311 ft 440 kts 143°
2026-04-23 13:24 48.08304 9.50091 37314 ft 440 kts 143°
2026-04-23 13:25 48.03180 9.55139 37327 ft 440 kts 143°
2026-04-23 13:25 47.98085 9.60237 37306 ft 441 kts 142°
2026-04-23 13:26 47.93034 9.65427 37307 ft 441 kts 141°
2026-04-23 13:26 47.88015 9.70578 37297 ft 441 kts 142°
2026-04-23 13:27 47.82951 9.75744 37308 ft 441 kts 142°
2026-04-23 13:27 47.77874 9.80902 37314 ft 441 kts 142°
2026-04-23 13:28 47.72819 9.86023 37310 ft 442 kts 142°
2026-04-23 13:28 47.67731 9.91166 37306 ft 442 kts 142°
2026-04-23 13:29 47.62641 9.96298 37298 ft 442 kts 142°
2026-04-23 13:29 47.57657 10.01313 37295 ft 443 kts 142°
2026-04-23 13:30 47.52546 10.06442 37295 ft 443 kts 142°
2026-04-23 13:30 47.47456 10.11538 37295 ft 444 kts 142°
2026-04-23 13:31 47.42311 10.16678 37279 ft 447 kts 142°
2026-04-23 13:31 47.37155 10.21815 37285 ft 447 kts 142°
2026-04-23 13:32 47.31990 10.26949 37291 ft 447 kts 142°
2026-04-23 13:32 47.26857 10.32038 37283 ft 446 kts 142°
2026-04-23 13:33 47.21701 10.37140 37267 ft 445 kts 142°
2026-04-23 13:33 47.16547 10.42228 37269 ft 445 kts 142°
2026-04-23 13:34 47.11439 10.47260 37276 ft 444 kts 142°
2026-04-23 13:34 47.06242 10.52231 37257 ft 447 kts 148°
2026-04-23 13:35 47.00385 10.55476 37275 ft 454 kts 160°
2026-04-23 13:35 46.94311 10.58081 37270 ft 456 kts 159°
2026-04-23 13:36 46.88258 10.60781 37260 ft 458 kts 159°
2026-04-23 13:36 46.82163 10.63533 37259 ft 458 kts 159°
2026-04-23 13:37 46.76057 10.66266 37261 ft 459 kts 158°
2026-04-23 13:37 46.70053 10.69359 37261 ft 455 kts 150°
2026-04-23 13:38 46.64426 10.73444 37258 ft 454 kts 148°
2026-04-23 13:38 46.58791 10.77606 37252 ft 454 kts 149°
2026-04-23 13:39 46.53127 10.81705 37255 ft 454 kts 149°
2026-04-23 13:39 46.47473 10.85740 37225 ft 455 kts 149°
2026-04-23 13:40 46.41784 10.89782 37236 ft 455 kts 149°
2026-04-23 13:40 46.36087 10.93822 37238 ft 455 kts 149°
2026-04-23 13:41 46.30387 10.97857 37243 ft 456 kts 149°
2026-04-23 13:41 46.24800 11.01803 37240 ft 456 kts 149°
2026-04-23 13:42 46.19089 11.05828 37238 ft 456 kts 149°
2026-04-23 13:42 46.14340 11.09168 37229 ft 456 kts 149°
2026-04-23 13:43 46.07699 11.13828 37230 ft 456 kts 149°
2026-04-23 13:43 46.02921 11.17175 37236 ft 456 kts 149°
2026-04-23 13:44 45.97329 11.21167 37226 ft 456 kts 149°
2026-04-23 13:44 45.91638 11.25263 37205 ft 457 kts 149°
2026-04-23 13:45 45.85935 11.29355 37198 ft 458 kts 149°
2026-04-23 13:45 45.80224 11.33434 37206 ft 458 kts 149°
2026-04-23 13:46 45.74504 11.37507 37184 ft 458 kts 149°
2026-04-23 13:46 45.68826 11.41539 37193 ft 458 kts 149°
2026-04-23 13:47 45.63115 11.45587 37186 ft 457 kts 149°
2026-04-23 13:47 45.57409 11.49622 37202 ft 456 kts 149°
2026-04-23 13:48 45.51755 11.53612 37188 ft 456 kts 149°
2026-04-23 13:48 45.46053 11.57626 37193 ft 456 kts 149°
2026-04-23 13:49 45.40367 11.61619 37184 ft 456 kts 149°
2026-04-23 13:49 45.34675 11.65608 37196 ft 455 kts 149°
2026-04-23 13:50 45.28986 11.69586 37195 ft 455 kts 149°
2026-04-23 13:50 45.23328 11.73534 37195 ft 455 kts 149°
2026-04-23 13:51 45.17690 11.77458 37201 ft 455 kts 149°
2026-04-23 13:51 45.11988 11.81418 37214 ft 456 kts 149°
2026-04-23 13:52 45.06382 11.85303 37222 ft 456 kts 149°
2026-04-23 13:52 45.00693 11.89239 37255 ft 453 kts 149°
2026-04-23 13:53 44.94985 11.93178 37239 ft 458 kts 149°
2026-04-23 13:53 44.89269 11.97113 37234 ft 461 kts 149°
2026-04-23 13:54 44.83575 12.01023 37226 ft 462 kts 149°
2026-04-23 13:54 44.77825 12.04962 37228 ft 462 kts 149°
2026-04-23 13:55 44.72041 12.08916 37236 ft 461 kts 149°
2026-04-23 13:55 44.66261 12.12860 37225 ft 460 kts 149°
2026-04-23 13:56 44.60536 12.16757 37243 ft 459 kts 149°
2026-04-23 13:56 44.54776 12.20670 37239 ft 459 kts 149°
2026-04-23 13:57 44.49018 12.24572 37235 ft 459 kts 149°
2026-04-23 13:57 44.43264 12.28463 37233 ft 458 kts 149°
2026-04-23 13:58 44.37553 12.32317 37230 ft 458 kts 149°
2026-04-23 13:58 44.31806 12.36187 37255 ft 458 kts 149°
2026-04-23 13:59 44.26062 12.40046 37245 ft 458 kts 149°
2026-04-23 13:59 44.20303 12.43908 37244 ft 458 kts 149°
2026-04-23 14:00 44.15519 12.47109 37235 ft 459 kts 149°
2026-04-23 14:00 44.08812 12.51587 37217 ft 459 kts 149°
2026-04-23 14:01 44.03036 12.55434 37218 ft 460 kts 149°
2026-04-23 14:01 43.97298 12.59247 37215 ft 460 kts 149°
2026-04-23 14:02 43.91508 12.63087 37213 ft 461 kts 150°
2026-04-23 14:02 43.85712 12.66922 37216 ft 462 kts 149°
2026-04-23 14:03 43.79901 12.70759 37211 ft 462 kts 149°
2026-04-23 14:03 43.74133 12.74559 37212 ft 462 kts 150°
2026-04-23 14:04 43.68319 12.78382 37224 ft 463 kts 150°
2026-04-23 14:04 43.62498 12.82201 37209 ft 463 kts 150°
2026-04-23 14:05 43.56672 12.86016 37206 ft 463 kts 150°
2026-04-23 14:05 43.50843 12.89823 37205 ft 463 kts 150°
2026-04-23 14:06 43.45009 12.93626 37205 ft 464 kts 150°
2026-04-23 14:06 43.39212 12.97397 37202 ft 464 kts 150°
2026-04-23 14:07 43.33454 13.01136 37194 ft 464 kts 150°
2026-04-23 14:07 43.24713 13.06881 37195 ft 463 kts 149°
2026-04-23 14:08 43.18941 13.10808 37199 ft 462 kts 149°
2026-04-23 14:08 43.13211 13.14698 37209 ft 461 kts 149°
2026-04-23 14:09 43.07439 13.18598 37193 ft 462 kts 149°
2026-04-23 14:09 43.01668 13.22486 37192 ft 463 kts 149°
2026-04-23 14:10 42.95874 13.26375 37187 ft 463 kts 149°
2026-04-23 14:10 42.90122 13.30227 37188 ft 464 kts 149°
2026-04-23 14:11 42.84315 13.34108 37196 ft 465 kts 149°
2026-04-23 14:11 42.78501 13.37985 37189 ft 466 kts 150°
2026-04-23 14:12 42.72664 13.41869 37178 ft 466 kts 150°
2026-04-23 14:12 42.66870 13.45717 37177 ft 466 kts 150°
2026-04-23 14:13 42.61022 13.49592 37195 ft 467 kts 150°
2026-04-23 14:13 42.55181 13.53455 37181 ft 467 kts 150°
2026-04-23 14:14 42.49367 13.57292 37173 ft 467 kts 150°
2026-04-23 14:14 42.43522 13.61141 37170 ft 467 kts 150°
2026-04-23 14:15 42.37671 13.64987 37179 ft 467 kts 150°
2026-04-23 14:15 42.31831 13.68817 37173 ft 467 kts 150°
2026-04-23 14:16 42.25990 13.72640 37183 ft 467 kts 150°
2026-04-23 14:16 42.20128 13.76469 37183 ft 468 kts 150°
2026-04-23 14:17 42.14251 13.80300 37186 ft 470 kts 151°
2026-04-23 14:17 42.08389 13.84113 37183 ft 472 kts 151°
2026-04-23 14:18 42.02466 13.87956 37186 ft 474 kts 150°
2026-04-23 14:18 41.96524 13.91806 37173 ft 475 kts 150°
2026-04-23 14:19 41.90561 13.95660 37171 ft 475 kts 150°
2026-04-23 14:19 41.84597 13.99506 37160 ft 475 kts 150°
2026-04-23 14:20 41.78850 14.03205 37149 ft 475 kts 150°
2026-04-23 14:20 41.72892 14.07032 37144 ft 474 kts 151°
2026-04-23 14:21 41.66933 14.10852 37149 ft 475 kts 151°
2026-04-23 14:21 41.60971 14.14667 37141 ft 475 kts 151°
2026-04-23 14:22 41.54997 14.18481 37136 ft 475 kts 151°
2026-04-23 14:22 41.49063 14.22262 37155 ft 476 kts 151°
2026-04-23 14:23 41.43050 14.26089 37145 ft 480 kts 152°
2026-04-23 14:23 41.36994 14.29932 37135 ft 483 kts 152°
2026-04-23 14:24 41.30899 14.33788 37129 ft 485 kts 151°
2026-04-23 14:24 41.24829 14.37626 37140 ft 487 kts 152°
2026-04-23 14:25 41.18690 14.41496 37129 ft 487 kts 152°
2026-04-23 14:25 41.12568 14.45346 37119 ft 486 kts 152°
2026-04-23 14:26 41.06453 14.49186 37121 ft 485 kts 152°
2026-04-23 14:26 41.00335 14.53020 37118 ft 486 kts 152°
2026-04-23 14:27 40.94233 14.56836 37117 ft 486 kts 152°
2026-04-23 14:27 40.88161 14.60626 37109 ft 486 kts 152°
2026-04-23 14:28 40.82039 14.64439 37107 ft 486 kts 153°
2026-04-23 14:28 40.75916 14.68245 37099 ft 487 kts 153°
2026-04-23 14:29 40.69785 14.72048 37098 ft 487 kts 153°
2026-04-23 14:29 40.63644 14.75849 37108 ft 487 kts 153°
2026-04-23 14:30 40.57493 14.79649 37090 ft 488 kts 153°
2026-04-23 14:30 40.51361 14.83429 37106 ft 489 kts 153°
2026-04-23 14:31 40.46188 14.86612 37107 ft 490 kts 153°
2026-04-23 14:31 40.39994 14.90417 37110 ft 491 kts 153°
2026-04-23 14:32 40.33829 14.94196 37094 ft 493 kts 154°
2026-04-23 14:32 40.27608 14.98001 37085 ft 493 kts 154°
2026-04-23 14:33 40.21459 15.01754 37081 ft 494 kts 154°
2026-04-23 14:33 40.15262 15.05530 37077 ft 494 kts 154°
2026-04-23 14:34 40.09020 15.09325 37070 ft 494 kts 154°
2026-04-23 14:34 40.02776 15.13114 37075 ft 494 kts 155°
2026-04-23 14:35 39.96574 15.16869 37070 ft 495 kts 155°
2026-04-23 14:35 39.90324 15.20647 37068 ft 495 kts 155°
2026-04-23 14:36 39.84064 15.24422 36905 ft 498 kts 155°
2026-04-23 14:36 39.80895 15.26332 36313 ft 501 kts 155°
2026-04-23 14:36 39.77740 15.28231 35704 ft 499 kts 155°
2026-04-23 14:37 39.74585 15.30127 34952 ft 500 kts 155°
2026-04-23 14:37 39.71510 15.32182 34073 ft 505 kts 148°
2026-04-23 14:37 39.68647 15.34816 33358 ft 501 kts 139°
2026-04-23 14:37 39.66016 15.37760 32458 ft 493 kts 137°
2026-04-23 14:38 39.63468 15.40680 31734 ft 484 kts 137°
2026-04-23 14:38 39.60965 15.43551 30971 ft 476 kts 137°
2026-04-23 14:38 39.58523 15.46329 30229 ft 469 kts 137°
2026-04-23 14:38 39.56073 15.49087 29323 ft 462 kts 137°
2026-04-23 14:39 39.53662 15.51781 28486 ft 454 kts 137°
2026-04-23 14:39 39.51267 15.54446 27648 ft 456 kts 137°
2026-04-23 14:39 39.48819 15.57167 26763 ft 472 kts 137°
2026-04-23 14:39 39.46277 15.59992 25795 ft 491 kts 137°
2026-04-23 14:40 39.43676 15.62875 24999 ft 484 kts 137°
2026-04-23 14:40 39.41160 15.65654 24340 ft 468 kts 138°
2026-04-23 14:40 39.38721 15.68349 23668 ft 455 kts 139°
2026-04-23 14:40 39.36344 15.70977 22897 ft 443 kts 139°
2026-04-23 14:41 39.34054 15.73509 22315 ft 439 kts 139°
2026-04-23 14:41 39.31708 15.76101 22145 ft 445 kts 139°
2026-04-23 14:41 39.29338 15.78715 22077 ft 449 kts 139°
2026-04-23 14:41 39.26990 15.81295 22045 ft 434 kts 139°
2026-04-23 14:42 39.24721 15.83751 22037 ft 417 kts 140°
2026-04-23 14:42 39.22534 15.86105 22034 ft 401 kts 140°
2026-04-23 14:42 39.20462 15.88337 22039 ft 385 kts 139°
2026-04-23 14:42 39.18509 15.90616 22022 ft 371 kts 135°
2026-04-23 14:43 39.16703 15.92918 21884 ft 361 kts 134°
2026-04-23 14:43 39.14961 15.95198 21467 ft 354 kts 134°
2026-04-23 14:43 39.13229 15.97470 20672 ft 359 kts 135°
2026-04-23 14:43 39.11464 15.99765 20042 ft 360 kts 135°
2026-04-23 14:44 39.09768 16.01953 19606 ft 355 kts 135°
2026-04-23 14:44 39.08034 16.04179 19124 ft 350 kts 136°
2026-04-23 14:44 39.06312 16.06381 18627 ft 348 kts 136°
2026-04-23 14:44 39.04599 16.08566 18087 ft 346 kts 136°
2026-04-23 14:45 39.02897 16.10736 17556 ft 342 kts 136°
2026-04-23 14:45 39.01213 16.12880 17057 ft 338 kts 136°
2026-04-23 14:45 38.99572 16.14967 16566 ft 335 kts 135°
2026-04-23 14:45 38.97930 16.17066 16069 ft 332 kts 135°
2026-04-23 14:46 38.96297 16.19158 15559 ft 329 kts 135°
2026-04-23 14:46 38.94677 16.21234 15045 ft 327 kts 135°
2026-04-23 14:46 38.93109 16.23239 14602 ft 323 kts 135°
2026-04-23 14:46 38.91521 16.25266 14108 ft 320 kts 135°
2026-04-23 14:47 38.89962 16.27251 13661 ft 317 kts 135°
2026-04-23 14:47 38.88403 16.29230 13174 ft 313 kts 135°
2026-04-23 14:47 38.86859 16.31184 12675 ft 310 kts 135°
2026-04-23 14:47 38.85312 16.33136 12129 ft 310 kts 135°
2026-04-23 14:48 38.83786 16.35054 11746 ft 305 kts 135°
2026-04-23 14:48 38.82274 16.36961 11244 ft 304 kts 133°
2026-04-23 14:48 38.81184 16.39183 11067 ft 287 kts 108°
2026-04-23 14:48 38.80659 16.41565 10946 ft 271 kts 100°
2026-04-23 14:49 38.80278 16.43913 10613 ft 267 kts 99°
2026-04-23 14:49 38.79914 16.46204 10258 ft 264 kts 99°
2026-04-23 14:49 38.79532 16.48499 9914 ft 261 kts 100°
2026-04-23 14:49 38.79143 16.50770 9486 ft 260 kts 100°
2026-04-23 14:50 38.78752 16.53025 9057 ft 259 kts 100°
2026-04-23 14:50 38.78391 16.55305 8621 ft 263 kts 97°
2026-04-23 14:50 38.78112 16.57606 8409 ft 260 kts 96°
2026-04-23 14:50 38.77846 16.59889 8202 ft 257 kts 96°
2026-04-23 14:51 38.77879 16.62146 7902 ft 253 kts 69°
2026-04-23 14:51 38.78783 16.64015 7622 ft 245 kts 38°
2026-04-23 14:51 38.80202 16.65135 7202 ft 245 kts 15°
2026-04-23 14:51 38.81890 16.65589 6766 ft 249 kts
2026-04-23 14:52 38.83611 16.65564 6410 ft 250 kts 343°
2026-04-23 14:52 38.85081 16.64425 6167 ft 247 kts 316°
2026-04-23 14:52 38.85959 16.62554 5873 ft 245 kts 291°
2026-04-23 14:52 38.86291 16.60461 5633 ft 239 kts 281°
2026-04-23 14:53 38.86520 16.58363 5205 ft 240 kts 280°
2026-04-23 14:53 38.86822 16.56245 4774 ft 240 kts 284°
2026-04-23 14:53 38.87120 16.54140 4406 ft 238 kts 281°
2026-04-23 14:53 38.87370 16.52061 4087 ft 234 kts 280°
2026-04-23 14:54 38.87607 16.49991 3732 ft 233 kts 278°
2026-04-23 14:54 38.87834 16.47976 3424 ft 228 kts 277°
2026-04-23 14:54 38.88056 16.46003 3107 ft 217 kts 276°
2026-04-23 14:54 38.88269 16.44128 2795 ft 207 kts 276°
2026-04-23 14:55 38.88466 16.42374 2579 ft 192 kts 278°
2026-04-23 14:55 38.88652 16.40729 2355 ft 180 kts 279°
2026-04-23 14:55 38.88829 16.39183 2137 ft 171 kts 280°
2026-04-23 14:55 38.89002 16.37677 1921 ft 168 kts 279°
2026-04-23 14:56 38.89168 16.36192 1694 ft 167 kts 279°
2026-04-23 14:56 38.89331 16.34694 1449 ft 167 kts 280°
2026-04-23 14:56 38.89515 16.33278 1208 ft 153 kts 275°
2026-04-23 14:56 38.89652 16.31993 1004 ft 141 kts 276°
2026-04-23 14:57 38.89787 16.30793 832 ft 134 kts 277°
2026-04-23 14:57 38.89921 16.29645 662 ft 126 kts 278°
2026-04-23 14:57 38.90042 16.28561 510 ft 117 kts 277°
2026-04-23 14:57 38.90159 16.27541 337 ft 114 kts 275°
2026-04-23 14:58 38.90275 16.26518 171 ft 117 kts 276°
2026-04-23 14:58 38.90399 16.25474 63 ft 119 kts 274°
2026-04-23 14:58 38.90506 16.24536 32 ft 94 kts 276°
2026-04-23 14:58 38.90577 16.23906 29 ft 46 kts 278°
2026-04-23 14:59 38.90641 16.23641 33 ft 8 kts 301°
2026-04-23 14:59 38.90673 16.23585 33 ft 8 kts 307°
2026-04-23 14:59 38.90705 16.23531 33 ft 7 kts 308°
2026-04-23 14:59 38.90749 16.23485 32 ft 10 kts 337°
2026-04-23 15:00 38.90827 16.23511 30 ft 13 kts 55°
2026-04-23 15:00 38.90835 16.23623 31 ft 13 kts 99°
2026-04-23 15:00 38.90826 16.23688 31 ft 0 kts 98°
2026-04-23 15:01 38.90826 16.23689 31 ft 0 kts 98°
2026-04-23 15:02 38.90825 16.23699 31 ft 2 kts 99°
2026-04-23 15:02 38.90821 16.23737 31 ft 6 kts 98°
2026-04-23 15:02 38.90813 16.23811 31 ft 10 kts 98°
2026-04-23 15:03 38.90800 16.23914 31 ft 13 kts 98°
2026-04-23 15:03 38.90784 16.24047 31 ft 16 kts 98°
2026-04-23 15:03 38.90782 16.24160 29 ft 12 kts 68°
2026-04-23 15:03 38.90795 16.24186 30 ft 12 kts 54°
2026-04-23 15:04 38.90813 16.24218 31 ft 12 kts 54°
2026-04-23 15:04 38.90828 16.24288 31 ft 10 kts 95°
2026-04-23 15:05 38.90828 16.24290 31 ft 10 kts 95°
2026-04-23 15:05 38.90819 16.24380 31 ft 10 kts 99°
2026-04-23 15:05 38.90817 16.24420 31 ft 5 kts 73°
2026-04-23 15:06 38.90833 16.24433 30 ft 2 kts
2026-04-23 15:06 38.90844 16.24436 31 ft 2 kts
2026-04-23 15:07 38.90862 16.24439 31 ft 3 kts
2026-04-23 15:07 38.90876 16.24450 29 ft 2 kts 46°
2026-04-23 15:07 38.90879 16.24456 30 ft 0 kts 52°